This is the latest recevied weather packets stored in our database for station/object AF5AA. If no packets are shown the sender has not sent any weather packets the latest 10 day(s).
| Time | Temp. | Humidity | Pressure | Rain* | Wind** | Luminosity | Snow |
|---|---|---|---|---|---|---|---|
| 1777994348 | 22.78° C | 86% | 1006.9 hPa | 0 mm | - | 43 W/m² | - |
| 1777994045 | 22.78° C | 86% | 1007 hPa | 0 mm | - | 54 W/m² | - |
| 1777993741 | 22.78° C | 86% | 1006.8 hPa | 0 mm | - | 34 W/m² | - |
| 1777993439 | 22.78° C | 86% | 1006.9 hPa | 0 mm | - | 32 W/m² | - |
| 1777993133 | 22.78° C | 86% | 1007.2 hPa | 0 mm | - | 49 W/m² | - |
| 1777992831 | 22.78° C | 87% | 1007.2 hPa | 0 mm | - | 54 W/m² | - |
| 1777992528 | 22.78° C | 86% | 1007.2 hPa | 0 mm | - | 26 W/m² | - |
| 1777992227 | 22.78° C | 86% | 1007.2 hPa | 0 mm | - | 25 W/m² | - |
| 1777991924 | 22.78° C | 87% | 1007.4 hPa | 0 mm | - | 27 W/m² | - |
| 1777991621 | 22.78° C | 86% | 1007.4 hPa | 0 mm | - | 28 W/m² | - |
| 1777991318 | 22.78° C | 85% | 1007.3 hPa | 0 mm | - | 25 W/m² | - |
| 1777991016 | 22.78° C | 86% | 1007.3 hPa | 0 mm | - | 35 W/m² | - |
| 1777990713 | 22.78° C | 85% | 1007.2 hPa | 0 mm | - | 43 W/m² | - |
| 1777990410 | 22.22° C | 85% | 1007.3 hPa | 0 mm | - | 42 W/m² | - |
| 1777989803 | 22.22° C | 86% | 1007.2 hPa | 0 mm | - | 40 W/m² | - |
| 1777989500 | 22.22° C | 86% | 1007.1 hPa | 0 mm | - | 40 W/m² | - |
| 1777989196 | 22.22° C | 87% | 1007.2 hPa | 0 mm | - | 23 W/m² | - |
| 1777988892 | 22.22° C | 87% | 1007.3 hPa | 0 mm | - | 34 W/m² | - |
| 1777988589 | 22.22° C | 87% | 1007 hPa | 0 mm | - | 28 W/m² | - |
| 1777988286 | 21.67° C | 88% | 1007 hPa | 0 mm | - | 35 W/m² | - |
| 1777987983 | 21.67° C | 89% | 1007.1 hPa | 0 mm | - | 39 W/m² | - |
| 1777987678 | 21.67° C | 89% | 1006.9 hPa | 0 mm | - | 28 W/m² | - |
| 1777987376 | 21.67° C | 89% | 1007 hPa | 0 mm | - | 17 W/m² | - |
| 1777987073 | 21.67° C | 89% | 1006.9 hPa | 0 mm | - | 16 W/m² | - |
| 1777986770 | 21.67° C | 89% | 1007.1 hPa | 0 mm | - | 7 W/m² | - |
* Rain latest hour (hover to see other rain measurements)
** Current wind speed in m/s (hover to see current wind gust speed)